When you browse on this site, cookies collect data to enhance your experience and personalize the content and advertising you see.
Visit our Privacy Policy to learn more. By continuing to use the site, you agree to this use of cookies and data.
  • în România
  • Lista ţărilor
  • Pe 7 zile
  • Temperatura apei
  • Hartă satelitară
  • Meteo pe hartă
  • Widget-uri
  • user-avatar
    Intrare

    Meteo pe oră la Koszyce

    Astăzi, 17 Iunie, Luni

    Timp Temperatura Precipitaţii Vânt Presiune Umiditate
    00:00 +18°C° 0 mm 3 m/s 747 mmHg 93%
    01:00 +18°C° 0 mm 3 m/s 747 mmHg 92%
    02:00 +18°C° 0.1 mm 2 m/s 747 mmHg 91%
    03:00 +17°C° 0.1 mm 2 m/s 747 mmHg 91%
    04:00 +18°C° 0.1 mm 1 m/s 747 mmHg 91%
    05:00 +18°C° 0 mm 2 m/s 747 mmHg 86%
    06:00 +18°C° 0 mm 2 m/s 748 mmHg 82%
    07:00 +18°C° 0 mm 3 m/s 748 mmHg 78%
    08:00 +20°C° 0 mm 3 m/s 748 mmHg 72%
    09:00 +21°C° 0 mm 3 m/s 748 mmHg 65%
    10:00 +22°C° 0 mm 3 m/s 748 mmHg 58%
    11:00 +22°C° 0 mm 3 m/s 748 mmHg 57%
    12:00 +24°C° 0 mm 3 m/s 748 mmHg 55%
    13:00 +25°C° 0 mm 2 m/s 748 mmHg 53%
    14:00 +25°C° 0 mm 2 m/s 748 mmHg 55%
    15:00 +25°C° 0 mm 2 m/s 747 mmHg 56%
    16:00 +25°C° 0 mm 2 m/s 747 mmHg 58%
    17:00 +24°C° 0 mm 2 m/s 747 mmHg 64%
    18:00 +23°C° 0 mm 2 m/s 747 mmHg 69%
    19:00 +21°C° 0 mm 2 m/s 747 mmHg 75%
    20:00 +20°C° 0 mm 2 m/s 747 mmHg 78%
    21:00 +19°C° 0 mm 2 m/s 747 mmHg 81%
    22:00 +18°C° 0 mm 2 m/s 747 mmHg 84%
    23:00 +18°C° 0 mm 2 m/s 747 mmHg 87%

    Mâine, 18 Iunie, Marţi

    Timp Temperatura Precipitaţii Vânt Presiune Umiditate
    00:00 +17°C° 0 mm 2 m/s 747 mmHg 90%
    01:00 +17°C° 0 mm 2 m/s 747 mmHg 92%
    02:00 +17°C° 0 mm 2 m/s 747 mmHg 93%
    03:00 +16°C° 0 mm 2 m/s 747 mmHg 94%
    04:00 +16°C° 0 mm 2 m/s 747 mmHg 94%
    05:00 +17°C° 0 mm 2 m/s 747 mmHg 91%
    06:00 +18°C° 0 mm 2 m/s 747 mmHg 87%
    07:00 +19°C° 0 mm 3 m/s 747 mmHg 84%
    08:00 +20°C° 0 mm 3 m/s 747 mmHg 83%
    09:00 +20°C° 0 mm 3 m/s 747 mmHg 82%
    10:00 +20°C° 0 mm 3 m/s 747 mmHg 81%
    11:00 +21°C° 0 mm 4 m/s 747 mmHg 78%
    12:00 +22°C° 0 mm 4 m/s 746 mmHg 76%
    13:00 +23°C° 0 mm 4 m/s 746 mmHg 73%
    14:00 +23°C° 0 mm 4 m/s 746 mmHg 75%
    15:00 +23°C° 0 mm 4 m/s 745 mmHg 77%
    16:00 +24°C° 0 mm 3 m/s 745 mmHg 79%
    17:00 +24°C° 0.1 mm 3 m/s 745 mmHg 82%
    18:00 +22°C° 0.1 mm 3 m/s 745 mmHg 84%
    19:00 +22°C° 0.1 mm 3 m/s 744 mmHg 87%
    20:00 +21°C° 0 mm 4 m/s 744 mmHg 89%
    21:00 +21°C° 0 mm 4 m/s 744 mmHg 91%
    22:00 +20°C° 0 mm 4 m/s 744 mmHg 92%
    23:00 +20°C° 0.2 mm 3 m/s 744 mmHg 93%

    Poimâine, 19 Iunie, Miercuri

    Timp Temperatura Precipitaţii Vânt Presiune Umiditate
    00:00 +20°C° 0.2 mm 3 m/s 744 mmHg 94%
    01:00 +19°C° 0.2 mm 2 m/s 744 mmHg 94%
    02:00 +19°C° 0.1 mm 2 m/s 743 mmHg 95%
    03:00 +18°C° 0.1 mm 2 m/s 743 mmHg 96%
    04:00 +19°C° 0.1 mm 1 m/s 743 mmHg 97%
    05:00 +20°C° 0 mm 1 m/s 743 mmHg 92%
    06:00 +22°C° 0 mm 1 m/s 743 mmHg 88%
    07:00 +23°C° 0 mm 1 m/s 743 mmHg 84%
    08:00 +25°C° 0 mm 1 m/s 743 mmHg 78%
    09:00 +24°C° 0 mm 0 m/s 743 mmHg 72%
    10:00 +26°C° 0 mm 0 m/s 743 mmHg 66%
    11:00 +27°C° 0 mm 0 m/s 743 mmHg 62%
    12:00 +29°C° 0 mm 1 m/s 742 mmHg 58%
    13:00 +30°C° 0 mm 1 m/s 742 mmHg 54%
    14:00 +28°C° 1.7 mm 2 m/s 742 mmHg 65%
    15:00 +26°C° 1.7 mm 4 m/s 742 mmHg 76%
    16:00 +22°C° 1.7 mm 5 m/s 741 mmHg 87%
    17:00 +22°C° 0.3 mm 4 m/s 741 mmHg 85%
    18:00 +22°C° 0.3 mm 3 m/s 741 mmHg 82%
    19:00 +23°C° 0.3 mm 1 m/s 741 mmHg 80%
    20:00 +22°C° 0 mm 1 m/s 741 mmHg 82%
    21:00 +21°C° 0 mm 1 m/s 742 mmHg 84%
    22:00 +21°C° 0 mm 1 m/s 742 mmHg 86%
    23:00 +20°C° 0 mm 1 m/s 742 mmHg 87%

    20 Iunie, Joi

    Timp Temperatura Precipitaţii Vânt Presiune Umiditate
    00:00 +20°C° 0 mm 1 m/s 741 mmHg 87%
    01:00 +18°C° 0 mm 0 m/s 741 mmHg 87%
    02:00 +18°C° 0 mm 0 m/s 741 mmHg 87%
    03:00 +18°C° 0 mm 0 m/s 741 mmHg 87%
    04:00 +18°C° 0 mm 0 m/s 742 mmHg 87%
    05:00 +19°C° 0.2 mm 0 m/s 742 mmHg 85%
    06:00 +20°C° 0.2 mm 0 m/s 742 mmHg 82%
    07:00 +22°C° 0.2 mm 0 m/s 742 mmHg 80%
    08:00 +25°C° 0.1 mm 1 m/s 742 mmHg 75%
    09:00 +26°C° 0.1 mm 1 m/s 742 mmHg 70%
    10:00 +28°C° 0.1 mm 1 m/s 742 mmHg 65%
    11:00 +29°C° 0.2 mm 1 m/s 742 mmHg 62%
    12:00 +30°C° 0.2 mm 1 m/s 742 mmHg 59%
    13:00 +30°C° 0.2 mm 1 m/s 742 mmHg 56%
    14:00 +30°C° 0.9 mm 1 m/s 742 mmHg 59%
    15:00 +30°C° 0.9 mm 1 m/s 742 mmHg 61%
    16:00 +30°C° 0.9 mm 1 m/s 742 mmHg 64%
    17:00 +28°C° 0.6 mm 1 m/s 742 mmHg 69%
    18:00 +27°C° 0.6 mm 1 m/s 742 mmHg 74%
    19:00 +26°C° 0.6 mm 2 m/s 742 mmHg 80%
    20:00 +24°C° 0.5 mm 1 m/s 742 mmHg 83%
    21:00 +23°C° 0.5 mm 1 m/s 742 mmHg 86%
    22:00 +22°C° 0.5 mm 1 m/s 742 mmHg 89%
    23:00 +21°C° 0 mm 1 m/s 742 mmHg 90%

    21 Iunie, Vineri

    Timp Temperatura Precipitaţii Vânt Presiune Umiditate
    00:00 +21°C° 0 mm 1 m/s 742 mmHg 91%
    01:00 +20°C° 0 mm 1 m/s 742 mmHg 91%
    02:00 +20°C° 0 mm 1 m/s 742 mmHg 92%
    03:00 +20°C° 0 mm 1 m/s 742 mmHg 92%
    04:00 +20°C° 0 mm 1 m/s 742 mmHg 92%
    05:00 +21°C° 0 mm 1 m/s 742 mmHg 88%
    06:00 +23°C° 0 mm 1 m/s 742 mmHg 85%
    07:00 +24°C° 0 mm 1 m/s 742 mmHg 81%
    08:00 +26°C° 0 mm 1 m/s 742 mmHg 75%
    09:00 +27°C° 0 mm 1 m/s 742 mmHg 69%
    10:00 +29°C° 0 mm 1 m/s 742 mmHg 64%
    11:00 +29°C° 0 mm 1 m/s 742 mmHg 60%
    12:00 +30°C° 0 mm 1 m/s 742 mmHg 57%
    13:00 +31°C° 0 mm 1 m/s 742 mmHg 53%
    14:00 +30°C° 0.3 mm 2 m/s 742 mmHg 57%
    15:00 +30°C° 0.3 mm 2 m/s 741 mmHg 60%
    16:00 +29°C° 0.3 mm 2 m/s 741 mmHg 64%
    17:00 +27°C° 1.2 mm 3 m/s 741 mmHg 72%
    18:00 +24°C° 1.2 mm 3 m/s 741 mmHg 79%
    19:00 +21°C° 1.2 mm 4 m/s 741 mmHg 87%
    20:00 +21°C° 0.7 mm 3 m/s 741 mmHg 88%
    21:00 +20°C° 0.7 mm 2 m/s 742 mmHg 89%
    22:00 +21°C° 0.7 mm 1 m/s 742 mmHg 90%
    23:00 +21°C° 0.1 mm 1 m/s 742 mmHg 89%

    22 Iunie, Sâmbătă

    Timp Temperatura Precipitaţii Vânt Presiune Umiditate
    00:00 +20°C° 0.1 mm 1 m/s 742 mmHg 89%
    01:00 +20°C° 0.1 mm 1 m/s 742 mmHg 89%
    02:00 +18°C° 0 mm 0 m/s 742 mmHg 89%
    03:00 +18°C° 0 mm 0 m/s 742 mmHg 90%
    04:00 +18°C° 0 mm 0 m/s 742 mmHg 90%
    05:00 +19°C° 0 mm 0 m/s 742 mmHg 87%
    06:00 +22°C° 0 mm 1 m/s 742 mmHg 84%
    07:00 +24°C° 0 mm 1 m/s 742 mmHg 81%
    08:00 +25°C° 0 mm 1 m/s 742 mmHg 76%
    09:00 +24°C° 0 mm 0 m/s 742 mmHg 71%
    10:00 +26°C° 0 mm 0 m/s 742 mmHg 66%
    11:00 +26°C° 0.1 mm 0 m/s 741 mmHg 62%
    12:00 +29°C° 0.1 mm 1 m/s 741 mmHg 59%
    13:00 +30°C° 0.1 mm 1 m/s 741 mmHg 55%
    14:00 +30°C° 0 mm 1 m/s 741 mmHg 55%
    15:00 +30°C° 0 mm 1 m/s 741 mmHg 55%
    16:00 +30°C° 0 mm 1 m/s 741 mmHg 55%
    17:00 +29°C° 0.1 mm 1 m/s 741 mmHg 61%
    18:00 +28°C° 0.1 mm 1 m/s 741 mmHg 67%
    19:00 +26°C° 0.1 mm 1 m/s 741 mmHg 73%
    20:00 +25°C° 0.6 mm 1 m/s 741 mmHg 77%
    21:00 +24°C° 0.6 mm 1 m/s 741 mmHg 81%
    22:00 +22°C° 0.6 mm 1 m/s 741 mmHg 85%
    23:00 +22°C° 0.1 mm 1 m/s 741 mmHg 86%
    Arată mai mult